TimeCST,TemperatureF,Dew PointF,Humidity,Sea Level PressureIn,VisibilityMPH,Wind Direction,Wind SpeedMPH,Gust SpeedMPH,PrecipitationIn,Events,Conditions,WindDirDegrees,DateUTC
12:52 AM,25.0,21.0,85,30.35,10.0,North,3.5,-,N/A,,Clear,360,2012-11-28 06:52:00
1:52 AM,21.9,19.9,92,30.34,10.0,NNW,5.8,-,N/A,,Clear,340,2012-11-28 07:52:00
2:52 AM,18.0,15.1,88,30.38,10.0,Calm,Calm,-,N/A,,Clear,0,2012-11-28 08:52:00
3:52 AM,17.1,15.1,92,30.38,10.0,Calm,Calm,-,N/A,,Clear,0,2012-11-28 09:52:00
4:52 AM,17.1,15.1,92,30.38,10.0,Calm,Calm,-,N/A,,Clear,0,2012-11-28 10:52:00
5:52 AM,14.0,12.0,92,30.40,10.0,Calm,Calm,-,N/A,,Clear,0,2012-11-28 11:52:00
6:52 AM,14.0,12.0,92,30.42,10.0,Calm,Calm,-,N/A,,Clear,0,2012-11-28 12:52:00
7:52 AM,15.1,12.9,91,30.42,10.0,East,3.5,-,N/A,,Clear,90,2012-11-28 13:52:00
8:52 AM,19.9,18.0,92,30.42,9.0,SE,3.5,-,N/A,,Clear,140,2012-11-28 14:52:00
9:52 AM,26.1,23.0,88,30.39,10.0,ESE,6.9,-,N/A,,Clear,120,2012-11-28 15:52:00
10:52 AM,33.1,25.0,72,30.38,10.0,SSE,9.2,-,N/A,,Clear,160,2012-11-28 16:52:00
11:52 AM,39.0,26.1,60,30.34,10.0,SSE,12.7,-,N/A,,Clear,160,2012-11-28 17:52:00
12:52 PM,45.0,28.0,52,30.29,10.0,South,11.5,-,N/A,,Clear,190,2012-11-28 18:52:00
1:52 PM,46.0,25.0,44,30.24,10.0,SSE,15.0,-,N/A,,Clear,160,2012-11-28 19:52:00
2:52 PM,46.9,23.0,39,30.20,10.0,South,16.1,21.9,N/A,,Clear,190,2012-11-28 20:52:00
3:52 PM,45.0,23.0,42,30.19,10.0,South,11.5,-,N/A,,Clear,190,2012-11-28 21:52:00
4:52 PM,41.0,24.1,51,30.17,10.0,SSE,10.4,-,N/A,,Clear,160,2012-11-28 22:52:00
5:52 PM,39.0,23.0,53,30.16,10.0,SE,8.1,-,N/A,,Clear,140,2012-11-28 23:52:00
6:52 PM,30.9,21.0,67,30.15,10.0,SE,9.2,-,N/A,,Clear,140,2012-11-29 00:52:00
7:52 PM,32.0,21.0,64,30.13,10.0,East,8.1,-,N/A,,Clear,100,2012-11-29 01:52:00
8:52 PM,33.1,21.9,64,30.12,10.0,ESE,6.9,-,N/A,,Clear,120,2012-11-29 02:52:00
9:52 PM,32.0,21.9,66,30.12,10.0,ESE,6.9,-,N/A,,Clear,120,2012-11-29 03:52:00
10:52 PM,32.0,23.0,69,30.09,10.0,SSE,5.8,-,N/A,,Clear,160,2012-11-29 04:52:00
11:52 PM,27.0,21.0,78,30.09,10.0,East,8.1,-,N/A,,Clear,100,2012-11-29 05:52:00